KK4XZ Weather Reports


Display with metric or nautical units.
time (UTC)temp
F
wind
direction
speed
MPH
gust
MPH
rain 1hr
in
rain 24hr
in
rain mn
in
humidity
%
barometer
mb
20260508191522 69 232 3.0 6.0 0.00 0.01 0.00 57 1015.8
20260508190517 67 222 3.0 6.0 0.00 0.06 0.00 60 1015.8
20260508185533 68 224 2.0 5.0 0.00 0.14 0.00 61 1015.9
20260508184527 69 232 4.0 6.0 0.00 0.14 0.00 60 1016.0
20260508183523 70 215 3.0 6.0 0.00 0.15 0.00 57 1016.2
20260508182517 71 153 2.0 4.0 0.00 0.15 0.00 59 1016.4
20260508181533 70 206 3.0 7.0 0.00 0.17 0.00 59 1016.3
20260508180528 70 204 3.0 7.0 0.00 0.17 0.00 60 1016.3
20260508175523 70 201 3.0 6.0 0.00 0.17 0.00 60 1016.5
20260508174518 70 161 3.0 5.0 0.00 0.17 0.00 62 1016.6
20260508173533 71 165 2.0 4.0 0.00 0.17 0.00 60 1016.5
20260508172528 69 203 3.0 5.0 0.00 0.17 0.00 64 1016.7
20260508171524 69 114 2.0 3.0 0.00 0.17 0.00 58 1016.5
20260508165534 68 47 1.0 2.0 0.00 0.17 0.00 59 1016.6
20260508164529 67 351 1.0 4.0 0.00 0.17 0.00 60 1016.7
20260508163524 68 90 2.0 4.0 0.00 0.17 0.00 59 1016.8
20260508162519 69 10 2.0 4.0 0.00 0.17 0.00 58 1016.9
20260508161534 69 328 1.0 4.0 0.00 0.17 0.00 59 1016.9
20260508160530 68 83 3.0 5.0 0.00 0.17 0.00 60 1016.9
20260508155524 68 40 2.0 5.0 0.00 0.17 0.00 61 1016.9
20260508154520 68 77 2.0 5.0 0.00 0.17 0.00 60 1017.1
20260508153535 68 39 2.0 4.0 0.00 0.17 0.00 60 1017.1
20260508152530 68 41 2.0 6.0 0.00 0.17 0.00 60 1017.1
20260508151525 69 31 2.0 5.0 0.00 0.17 0.00 59 1017.0
20260508150520 68 304 2.0 3.0 0.00 0.17 0.00 61 1017.1
20260508145535 67 71 2.0 4.0 0.00 0.17 0.00 63 1017.0
20260508144530 67 72 3.0 5.0 0.00 0.17 0.00 61 1017.0
20260508143525 67 53 2.0 5.0 0.00 0.17 0.00 65 1016.9
20260508142520 66 56 3.0 6.0 0.00 0.17 0.00 67 1016.9
20260508141535 66 44 2.0 4.0 0.00 0.17 0.00 66 1016.6
20260508140531 65 34 3.0 7.0 0.00 0.17 0.00 68 1016.6
20260508135526 63 50 3.0 6.0 0.00 0.17 0.00 70 1016.5
20260508134521 63 47 3.0 6.0 0.00 0.18 0.00 72 1016.3
20260508133536 62 52 4.0 9.0 0.00 0.18 0.00 74 1016.3
20260508132531 62 70 2.0 7.0 0.00 0.18 0.00 77 1016.5
20260508131526 60 55 3.0 6.0 0.00 0.18 0.00 79 1016.3
20260508130521 60 13 3.0 6.0 0.00 0.18 0.00 80 1016.4
20260508125516 59 50 3.0 6.0 0.00 0.18 0.00 81 1016.3
20260508124531 59 80 3.0 6.0 0.00 0.18 0.00 83 1016.1
20260508123527 58 352 2.0 4.0 0.00 0.18 0.00 86 1016.0
20260508122522 57 11 2.0 4.0 0.00 0.18 0.00 87 1015.9
20260508121517 56 51 2.0 5.0 0.00 0.18 0.00 90 1015.9
20260508120532 56 345 2.0 4.0 0.00 0.19 0.00 92 1015.9
20260508115527 55 36 2.0 4.0 0.00 0.19 0.00 94 1015.7
20260508114522 54 32 2.0 4.0 0.00 0.19 0.00 94 1015.7
20260508113518 54 29 3.0 4.0 0.00 0.19 0.00 94 1015.5
20260508112533 54 42 3.0 8.0 0.00 0.19 0.00 95 1015.6
20260508111529 54 129 2.0 5.0 0.00 0.19 0.00 95 1015.7
20260508110523 53 115 2.0 4.0 0.00 0.19 0.00 96 1015.5
20260508105518 53 320 1.0 4.0 0.00 0.19 0.00 96 1015.3
20260508104534 53 22 2.0 4.0 0.00 0.19 0.00 96 1015.3
20260508103528 53 42 2.0 3.0 0.00 0.19 0.00 96 1015.1
20260508102524 53 98 2.0 3.0 0.00 0.19 0.00 96 1014.9
20260508101519 53 35 1.0 4.0 0.00 0.19 0.00 96 1014.9
20260508100534 53 48 2.0 4.0 0.00 0.19 0.00 96 1014.7
20260508095529 53 76 2.0 4.0 0.00 0.20 0.00 96 1014.6
20260508094524 53 64 1.0 3.0 0.00 0.21 0.00 96 1014.5
20260508093519 53 62 2.0 4.0 0.00 0.21 0.00 97 1014.3
20260508092535 53 31 2.0 4.0 0.00 0.22 0.00 97 1014.0
20260508091530 53 69 2.0 4.0 0.00 0.22 0.00 96 1014.0
20260508090525 53 97 2.0 3.0 0.00 0.22 0.00 96 1014.0
20260508085520 53 136 1.0 4.0 0.00 0.22 0.00 96 1014.1
20260508084535 53 80 2.0 5.0 0.00 0.22 0.00 96 1013.8
20260508083530 54 25 2.0 4.0 0.00 0.22 0.00 96 1013.6
20260508082525 54 65 2.0 4.0 0.00 0.22 0.00 96 1013.5
20260508081521 54 94 2.0 4.0 0.00 0.22 0.00 96 1013.4
20260508080535 54 74 1.0 2.0 0.00 0.22 0.00 96 1013.4
20260508075531 54 48 1.0 3.0 0.00 0.23 0.00 96 1013.3
20260508074525 55 54 1.0 2.0 0.00 0.23 0.00 96 1013.0
20260508073521 55 44 1.0 2.0 0.00 0.23 0.00 96 1013.1
20260508072536 55 73 1.0 3.0 0.00 0.23 0.00 96 1013.0
20260508071531 55 33 1.0 3.0 0.00 0.23 0.00 96 1012.9
20260508070526 55 65 1.0 3.0 0.00 0.23 0.00 96 1012.7
20260508065521 55 50 1.0 3.0 0.00 0.24 0.00 96 1012.6
20260508064516 55 50 1.0 3.0 0.00 0.25 0.00 96 1012.5
20260508063532 56 24 1.0 3.0 0.00 0.26 0.00 95 1012.4
20260508062527 56 34 1.0 3.0 0.00 0.28 0.00 95 1012.3
20260508061522 56 31 1.0 3.0 0.00 0.28 0.00 95 1012.4
20260508060517 56 40 1.0 2.0 0.00 0.29 0.00 94 1012.1
20260508055532 56 32 1.0 3.0 0.00 0.30 0.00 94 1012.2
20260508054527 56 38 1.0 3.0 0.00 0.30 0.00 94 1012.2
20260508053523 56 48 1.0 2.0 0.00 0.30 0.00 94 1012.2
20260508052517 57 67 1.0 2.0 0.00 0.30 0.00 94 1012.2
20260508051533 57 60 1.0 3.0 0.00 0.30 0.00 94 1012.3
20260508050528 57 62 2.0 4.0 0.00 0.30 0.00 94 1012.3
20260508045523 57 36 2.0 4.0 0.00 0.30 0.00 93 1012.4
20260508044518 58 35 1.0 3.0 0.00 0.30 0.00 93 1012.1
20260508043533 58 30 1.0 4.0 0.00 0.30 0.00 93 1012.1
20260508042528 58 50 4.0 7.0 0.00 0.30 0.00 93 1011.9
20260508041524 58 50 2.0 6.0 0.00 0.30 0.00 92 1011.8
20260508040519 58 25 2.0 5.0 0.00 0.30 0.00 92 1011.7
20260508035534 59 11 1.0 4.0 0.00 0.30 0.30 93 1011.7
20260508034529 59 42 2.0 5.0 0.00 0.30 0.30 93 1011.8
20260508033524 60 38 3.0 8.0 0.00 0.30 0.30 94 1011.3
20260508032519 61 22 1.0 5.0 0.00 0.30 0.30 95 1011.3
20260508031534 62 344 2.0 5.0 0.00 0.30 0.30 94 1011.0
20260508030529 63 353 2.0 3.0 0.00 0.30 0.30 95 1010.9
20260508025524 63 32 0.0 2.0 0.00 0.30 0.30 95 1010.5
20260508024519 64 24 2.0 6.0 0.00 0.30 0.30 96 1010.2
20260508023535 66 21 2.0 4.0 0.00 0.30 0.30 97 1010.0
20260508022530 67 342 1.0 3.0 0.00 0.30 0.30 97 1009.5
20260508021525 66 170 0.0 2.0 0.00 0.30 0.30 96 1008.9
20260508020520 66 0.0 1.0 0.00 0.30 0.30 96 1008.9
20260508015535 66 0.0 1.0 0.00 0.30 0.30 96 1008.8
20260508014530 67 0.0 1.0 0.00 0.30 0.30 96 1008.6
20260508013525 67 0.0 1.0 0.00 0.30 0.30 96 1008.4
20260508012520 67 0.0 0.0 0.00 0.30 0.30 96 1008.1
20260508011536 68 0.0 0.0 0.00 0.30 0.30 95 1008.1
20260508010531 68 0.0 0.0 0.00 0.30 0.30 95 1008.1
20260508005526 68 0.0 1.0 0.00 0.30 0.30 94 1007.8
20260508004522 68 131 0.0 1.0 0.00 0.30 0.30 94 1007.8
20260508003516 69 44 0.0 1.0 0.00 0.30 0.30 94 1007.6
20260508002531 70 39 0.0 2.0 0.00 0.30 0.30 93 1007.4
20260508001528 70 170 1.0 2.0 0.00 0.30 0.30 92 1007.3
20260508000521 70 181 2.0 4.0 0.00 0.30 0.30 92 1007.3
20260507235516 70 188 2.0 4.0 0.00 0.30 0.30 91 1007.1
20260507234532 71 186 2.0 3.0 0.00 0.30 0.30 90 1007.0
20260507233526 71 190 2.0 4.0 0.00 0.30 0.30 90 1007.1
20260507232521 71 182 1.0 4.0 0.00 0.30 0.30 90 1007.1
20260507231537 71 179 1.0 4.0 0.00 0.30 0.30 89 1007.1
20260507230531 71 167 1.0 4.0 0.00 0.30 0.30 89 1007.2
20260507225526 71 175 2.0 4.0 0.00 0.30 0.30 88 1007.4
20260507224521 72 207 2.0 4.0 0.00 0.30 0.30 87 1007.5
20260507223516 72 201 1.0 4.0 0.00 0.30 0.30 86 1007.6
20260507222532 73 193 3.0 7.0 0.00 0.30 0.30 86 1007.6
20260507221527 73 203 2.0 5.0 0.00 0.30 0.30 86 1007.8
20260507220522 73 205 1.0 2.0 0.00 0.30 0.30 87 1007.6
20260507215517 73 238 2.0 6.0 0.00 0.30 0.30 86 1007.7
20260507214532 73 252 2.0 10.0 0.00 0.30 0.30 85 1007.7
20260507213527 72 203 2.0 7.0 0.00 0.30 0.30 85 1007.7
20260507212523 72 213 3.0 6.0 0.00 0.30 0.30 87 1007.5
20260507211518 72 207 3.0 10.0 0.00 0.30 0.30 87 1007.5
20260507210533 71 201 2.0 9.0 0.00 0.30 0.30 89 1007.1
20260507205528 71 197 2.0 6.0 0.00 0.30 0.30 92 1007.0
20260507204524 70 213 2.0 6.0 0.00 0.30 0.30 92 1007.2
20260507203518 70 206 3.0 7.0 0.00 0.30 0.30 93 1007.4
20260507202533 69 184 2.0 5.0 0.00 0.30 0.30 96 1007.4
20260507201529 68 177 1.0 4.0 0.01 0.30 0.30 96 1007.2
20260507200524 68 167 2.0 4.0 0.06 0.30 0.30 96 1007.1
20260507195519 67 334 1.0 3.0 0.14 0.30 0.30 96 1007.5
20260507194534 67 171 2.0 5.0 0.14 0.30 0.30 95 1008.0
20260507193529 67 134 0.0 2.0 0.15 0.30 0.30 95 1008.4
20260507192524 67 210 0.0 3.0 0.15 0.30 0.30 95 1008.4